Valparaiso, IN

6:07 AM CDT on July 28, 2017 (GMT -0500)
Porter County Municipal

Weather History for KVPZ - April, 2014

Change the Weather History Date:

Wednesday, April 30, 2014

  Actual Average Record
Temperature  
Mean Temperature 49 °F 54 °F  
Max Temperature 56 °F 65 °F 85 °F (2001)
Min Temperature 41 °F 43 °F 30 °F (2008)
Degree Days  
Heating Degree Days 16 11  
Month to date heating degree days 518 481  
Since 1 July heating degree days 6967 6059  
Cooling Degree Days 0 0  
Month to date cooling degree days 0 5  
Year to date cooling degree days 0 5  
Moisture  
Dew Point 43 °F    
Average Humidity 81    
Maximum Humidity 97    
Minimum Humidity 66    
Precipitation  
Precipitation T in 0.18 in 0.87 in (2003)
Month to date precipitation 2.20 3.53  
Year to date precipitation 5.62 9.18  
Sea Level Pressure  
Sea Level Pressure 29.77 in    
Wind  
Wind Speed 10 mph (SSW)    
Max Wind Speed 23 mph    
Max Gust Speed 26 mph    
Visibility 10 miles    
Events Rain    
T = Trace of Precipitation, MM = Missing Value Source: NWS Daily Summary

Daily Weather History Graph

Daily Weather History Graph

Search for Another Location

Airport or City:

Trip Planner

Search our weather history database for the weather conditions in past years. The results will help you decide how hot, cold, wet, or windy it might be!

Date:

Astronomy

Apr. 30, 2014 Rise Set
Actual Time 5:46 AM CDT 7:44 PM CDT
Civil Twilight 5:16 AM CDT 8:14 PM CDT
Nautical Twilight 4:39 AM CDT 8:51 PM CDT
Astronomical Twilight 4:00 AM CDT 9:31 PM CDT
Moon 6:46 AM CDT (4/30) 9:23 PM CDT (4/30)
Length of Visible Light 14h 58m
Length of Day
13h 58m
New Moon, 2% of the Moon is Illuminated
Apr 30
New Moon
May 6
First Quarter
May 14
Full
May 21
Last Quarter
May 28
New

Hourly Weather History & Observations

Time (CDT) Temp. Windchill Dew Point Humidity Pressure Visibility Wind Dir Wind Speed Gust Speed Precip Events Conditions
12:53 AM 50.0 °F - 48.0 °F 93% 29.70 in 10.0 mi SSE 4.6 mph - N/A   Overcast
1:53 AM 48.9 °F - 46.9 °F 93% 29.70 in 10.0 mi South 5.8 mph - N/A   Overcast
2:53 AM 48.9 °F - 46.9 °F 93% 29.70 in 10.0 mi SSE 4.6 mph - N/A   Mostly Cloudy
3:53 AM 48.0 °F - 46.0 °F 93% 29.70 in 10.0 mi SSW 6.9 mph - N/A   Scattered Clouds
4:53 AM 46.9 °F - 46.0 °F 97% 29.73 in 10.0 mi SSW 6.9 mph - N/A   Clear
5:53 AM 46.9 °F - 44.1 °F 90% 29.74 in 10.0 mi South 6.9 mph - N/A   Mostly Cloudy
6:53 AM 48.0 °F - 45.0 °F 89% 29.75 in 10.0 mi South 6.9 mph - N/A   Overcast
7:53 AM 50.0 °F - 45.0 °F 83% 29.75 in 10.0 mi SSW 11.5 mph - N/A   Overcast
8:53 AM 51.1 °F - 45.0 °F 80% 29.75 in 10.0 mi SSW 11.5 mph - N/A   Overcast
9:49 AM 51.8 °F - 46.4 °F 82% 29.75 in 10.0 mi SW 10.4 mph 18.4 mph N/A   Overcast
10:53 AM 52.0 °F - 45.0 °F 77% 29.77 in 10.0 mi SSW 10.4 mph - N/A   Overcast
11:22 AM 53.1 °F - 45.0 °F 74% 29.76 in 10.0 mi SSW 10.4 mph - N/A   Overcast
11:53 AM 54.0 °F - 45.0 °F 72% 29.76 in 10.0 mi SSW 9.2 mph - N/A   Overcast
12:53 PM 54.0 °F - 45.0 °F 72% 29.75 in 10.0 mi SW 12.7 mph - N/A   Overcast
1:53 PM 52.0 °F - 48.0 °F 86% 29.76 in 7.0 mi SW 10.4 mph - N/A   Overcast
2:32 PM 52.0 °F - 48.0 °F 86% 29.77 in 9.0 mi SW 10.4 mph - 0.00 in Rain Light Rain
2:53 PM 51.1 °F - 46.0 °F 83% 29.79 in 10.0 mi SW 16.1 mph 25.3 mph 0.00 in   Overcast
3:11 PM 50.0 °F - 48.0 °F 93% 29.79 in 7.0 mi WSW 13.8 mph - N/A   Overcast
3:53 PM 50.0 °F - 43.0 °F 77% 29.79 in 10.0 mi WSW 16.1 mph - N/A   Overcast
4:00 PM 48.9 °F - 43.0 °F 80% 29.79 in 10.0 mi WSW 20.7 mph - N/A   Overcast
4:53 PM 48.9 °F - 39.9 °F 71% 29.81 in 10.0 mi WSW 19.6 mph - N/A   Overcast
5:53 PM 46.9 °F - 37.0 °F 68% 29.82 in 10.0 mi WSW 17.3 mph 24.2 mph N/A   Overcast
6:15 PM 46.9 °F - 36.0 °F 66% 29.81 in 10.0 mi WSW 15.0 mph - N/A   Overcast
6:53 PM 46.0 °F 40.2 °F 37.0 °F 71% 29.83 in 10.0 mi WSW 12.7 mph - N/A   Overcast
7:53 PM 44.1 °F 40.8 °F 35.1 °F 71% 29.84 in 10.0 mi SSW 5.8 mph - N/A   Partly Cloudy
8:53 PM 41.0 °F 39.0 °F 35.1 °F 79% 29.85 in 10.0 mi SSW 3.5 mph - N/A   Partly Cloudy
9:53 PM 42.1 °F 38.4 °F 35.1 °F 76% 29.85 in 10.0 mi South 5.8 mph - N/A   Overcast
10:53 PM 43.0 °F 38.8 °F 36.0 °F 76% 29.83 in 10.0 mi South 6.9 mph - N/A   Overcast
11:53 PM 44.1 °F 38.1 °F 37.9 °F 79% 29.81 in 10.0 mi South 11.5 mph - N/A   Overcast